Location: Borovka
(49.7741°N, 14.5280°E)
Time: 01:57:13
(UTC+00:00)

ESTCUBE 1 - Pass Details

Date: 23 March 2026
Orbit: 620 x 631 km, 97.7° (Epoch: 13 April)

Event Time Altitude Azimuth Distance (km) Brightness Sun altitude
Exits shadow 19:39:33 60° 167° (SSE) 722 ? -22.3°
Maximum altitude 19:40:20 89° 252° (WSW) 637 ? -22.4°
Drops below altitude 10° 19:44:46 10° 346° (NNW) 2,022 ? -23.0°
Sets 19:46:58 0° 347° (NNW) 2,935 ? -23.3°
